Miscellaneous Local Product
Issued by NWS Hastings, NE

Home | Current Version | Previous Version | Text Only | Print | Product List | Glossary Off
Versions: 1 2 3 4 5 6 7 8 9 10 11 12 13 14 15 16 17 18 19 20 21 22 23 24 25 26 27 28 29 30 31 32 33 34 35 36 37 38 39 40 41 42 43 44 45 46 47 48 49 50

000
AXUS43 KGID 242302
MISGRI

GID CWA HOURLY WEATHER ROUNDUP
NATIONAL WEATHER SERVICE HASTINGS NE
500 PM CST FRI FEB 24 2017

NOTE: "FAIR" INDICATES FEW OR NO CLOUDS BELOW 12,000 FEET WITH NO
SIGNIFICANT WEATHER AND/OR OBSTRUCTIONS TO VISIBILITY.

...SOUTH CENTRAL NEBRASKA...

CITY           SKY/WX    TMP DP  RH WIND       PRES   REMARKS
GRAND ISLAND   MOSUNNY   24  17  74 N28G35    30.02R WCI   7
HASTINGS       MOSUNNY   25  16  68 N25G31    30.03R WCI   9
KEARNEY        MOSUNNY   25  12  58 N17G24    30.04R WCI  11
ORD            MOSUNNY   24  14  65 N23G35    30.03R WCI   9
YORK           CLOUDY    25  18  74 N14       30.00R WCI  13
AURORA         CLOUDY    25  18  76 NW21G26   30.01R WCI  10
LEXINGTON      PTSUNNY   24  15  66 N17       30.06R WCI  11
HOLDREGE       PTSUNNY   24  14  66 N14G26    30.04R WCI  12
HEBRON         PTSUNNY   25  18  74 N22G29    30.01R WCI  11

...NEBRASKA PANHANDLE...

CITY           SKY/WX    TMP DP  RH WIND       PRES   REMARKS
CHADRON        CLOUDY    20  14  77 W5        30.08S WCI  13
ALLIANCE       CLOUDY    22  16  78 N7        30.03R WCI  13
SCOTTSBLUFF    CLOUDY    25  17  72 CALM      30.04S
SIDNEY         CLOUDY    22  14  71 NW8       30.02R WCI  12

...WESTERN AND NORTH CENTRAL NEBRASKA...

CITY           SKY/WX    TMP DP  RH WIND       PRES   REMARKS
VALENTINE      CLOUDY    24  12  60 NW10      30.08R WCI  14
AINSWORTH      CLOUDY    23  16  75 NW14      30.06S WCI  11
ONEILL         CLOUDY    25  18  74 NW17      30.03S WCI  11
BROKEN BOW     MOSUNNY   22  15  75 N23       30.04R WCI   6
IMPERIAL       CLOUDY    25  16  68 N15       30.05R WCI  13
NORTH PLATTE   CLOUDY    24  12  60 NW15      30.07R WCI  11
MCCOOK         MOSUNNY   27  16  63 N15       30.06R WCI  15

...EASTERN NEBRASKA...

CITY           SKY/WX    TMP DP  RH WIND       PRES   REMARKS
NORFOLK        CLOUDY    25  15  66 NW21      29.97R WCI  11
SO SIOUX CITY  MOSUNNY   28  18  66 NW22      29.94R WCI  14
TEKAMAH        MIX PCPN  26  16  65 NW22      29.94R WCI  12
COLUMBUS       CLOUDY    25  16  68 NW21G26   29.99R WCI  10
ALBION         MOSUNNY   26  16  64 NW18G25   30.00R WCI  13
OMAHA EPPLEY   FLURRIES  26  17  68 N21G32    29.92R WCI  12
OFFUTT AFB     FLURRIES  25  18  74 NW15G28   29.93R WCI  13
MILLARD        CLOUDY    28  19  68 NW14G23   29.95R WCI  17
LINCOLN        MIX PCPN  27  17  66 N22G29    29.98R WCI  13
NEBRASKA CITY  LGT SNOW  25  21  86 NW20G25   29.92R WCI  11
BEATRICE       CLOUDY    26  20  79 N28G36    29.97R WCI  10
FALLS CITY     LGT SNOW  26  22  84 NW20G35   29.91R FOG     WCI  12

...NORTHERN KANSAS...

CITY           SKY/WX    TMP DP  RH WIND       PRES   REMARKS
GOODLAND       CLOUDY    29  19  66 N14       30.01R WCI  18
HILL CITY      CLOUDY    31  14  49 N20G29    30.05R WCI  19
PHILLIPSBURG   MOSUNNY   28  18  64 NW17      30.07R WCI  16
SMITH CENTER   MOSUNNY   25  18  74 NW23      30.05R WCI  10
HAYS           SUNNY     32  16  51 N24G32    30.03R WCI  19
RUSSELL        MOSUNNY   30  17  58 N21G32    30.02R WCI  17
CONCORDIA      PTSUNNY   26  18  71 N20G32    30.01R WCI  12
SALINA         CLOUDY    33  19  56 NW21G32   30.01R WCI  21
TOPEKA         CLOUDY    30  24  78 NW16      29.93R WCI  19



USA.gov is the U.S. government's official web portal to all federal, state and local government web resources and services.